sat.trackr.live / text

‹ back to catalog

STARLINK-34764

NORAD 65098 · 2025-167W

PAYLOAD ACTIVE UNKNOWN

§ Identity

Operator
Country
US
Launch date
2025-08-04
Launch site
AFETR
Launch vehicle
Mass (kg)
RCS (m²)

Purposes: comms

External: N2YO · Heavens-Above · Gunter

§ Orbital elements

Epoch: 2026-05-25T01:26:07.520928Z

Period
93.85 min
Inclination
53.1601°
Eccentricity
0.0000981
Mean motion
15.34407718 rev/d
Perigee alt
462.0 km
Apogee alt
463.4 km
Semi-major
6,840.8 km
B*
4.3315e-4
RAAN
31.1324°
Arg perigee
104.1026°
Mean anomaly
256.0086°
Rev number
4,518

§ Raw data

STARLINK-347641 65098U 25167W   26145.05980927  .00014290  00000+0  43315-3 0  99912 65098  53.1601  31.1324 0000981 104.1026 256.0086 15.34407718 45187

JSON: /api/v1/satellites/65098 · /tle

For live sub-satellite position, see the globe view (requires WebGL).

§ Visibility from observer

Set your observer location to see the next 7 days of passes ≥ 10°. The values pass through the URL so the page stays shareable.

No JS? Fill the form by hand. The geolocation button needs JavaScript.